�������C�����ː����j�^�v���󋵏��
Date,Time,Cs137(Bq/L),Cs134(Bq/L),�S��(Bq/L)
2019/09/09,00:00,0.40,ND,ND
2019/09/09,00:10,0.40,ND,ND
2019/09/09,00:20,0.38,ND,ND
2019/09/09,00:30,0.43,ND,ND
2019/09/09,00:40,0.42,ND,ND
2019/09/09,00:50,0.42,ND,ND
2019/09/09,01:00,0.37,ND,ND
2019/09/09,01:10,0.42,ND,ND
2019/09/09,01:20,0.42,ND,ND
2019/09/09,01:30,0.42,ND,ND
2019/09/09,01:40,0.47,ND,ND
2019/09/09,01:50,0.48,ND,ND
2019/09/09,02:00,0.49,ND,ND
2019/09/09,02:10,0.51,ND,ND
2019/09/09,02:20,0.49,ND,ND
2019/09/09,02:30,0.49,ND,ND
2019/09/09,02:40,0.48,ND,ND
2019/09/09,02:50,0.49,ND,ND
2019/09/09,03:00,0.47,ND,ND
2019/09/09,03:10,0.41,ND,ND
2019/09/09,03:20,0.42,ND,ND
2019/09/09,03:30,0.41,ND,ND
2019/09/09,03:40,0.48,ND,ND
2019/09/09,03:50,0.48,ND,ND
2019/09/09,04:00,0.49,ND,ND
2019/09/09,04:10,0.50,ND,ND
2019/09/09,04:20,0.53,ND,ND
2019/09/09,04:30,0.54,ND,ND
2019/09/09,04:40,0.55,ND,ND
2019/09/09,04:50,0.49,ND,ND
2019/09/09,05:00,0.50,ND,ND
2019/09/09,05:10,0.48,ND,ND
2019/09/09,05:20,0.49,ND,ND
2019/09/09,05:30,0.50,ND,ND
2019/09/09,05:40,0.49,ND,ND
2019/09/09,05:50,0.48,ND,ND
2019/09/09,06:00,0.46,ND,ND
2019/09/09,06:10,0.46,ND,ND
2019/09/09,06:20,0.47,ND,ND
2019/09/09,06:30,0.46,ND,ND
2019/09/09,06:40,0.45,ND,ND
2019/09/09,06:50,0.45,ND,ND
2019/09/09,07:00,0.48,ND,ND
2019/09/09,07:10,0.48,ND,ND
2019/09/09,07:20,0.47,ND,ND
2019/09/09,07:30,0.46,ND,ND
2019/09/09,07:40,0.44,ND,ND
2019/09/09,07:50,0.45,ND,ND
2019/09/09,08:00,0.42,ND,ND
2019/09/09,08:10,0.43,ND,ND
2019/09/09,08:20,0.39,ND,ND
2019/09/09,08:30,0.43,ND,ND
2019/09/09,08:40,0.43,ND,ND
2019/09/09,08:50,0.42,ND,ND
2019/09/09,09:00,0.44,ND,ND
2019/09/09,09:10,0.42,ND,ND
2019/09/09,09:20,0.43,ND,ND
2019/09/09,09:30,0.43,ND,ND
2019/09/09,09:40,0.45,ND,ND
2019/09/09,09:50,0.45,ND,ND
2019/09/09,10:00,0.45,ND,ND
2019/09/09,10:10,0.45,ND,ND
2019/09/09,10:20,0.46,ND,ND
2019/09/09,10:30,0.44,ND,ND
2019/09/09,10:40,0.44,ND,ND
2019/09/09,10:50,0.44,ND,ND
2019/09/09,11:00,0.43,ND,ND
2019/09/09,11:10,0.44,ND,ND
2019/09/09,11:20,0.43,ND,ND
2019/09/09,11:30,0.44,ND,ND
2019/09/09,11:40,0.42,ND,ND
2019/09/09,11:50,0.42,ND,ND
2019/09/09,12:00,0.42,ND,ND
2019/09/09,12:10,0.41,ND,ND
2019/09/09,12:20,0.43,ND,ND
2019/09/09,12:30,0.43,ND,ND
2019/09/09,12:40,0.43,ND,ND
2019/09/09,12:50,0.43,ND,10
2019/09/09,13:00,0.45,ND,ND
2019/09/09,13:10,0.47,ND,ND
2019/09/09,13:20,0.47,ND,9.0
2019/09/09,13:30,0.49,ND,ND
2019/09/09,13:40,0.50,ND,ND
2019/09/09,13:50,0.51,ND,ND
2019/09/09,14:00,0.53,ND,ND
2019/09/09,14:10,0.55,ND,ND
2019/09/09,14:20,0.57,ND,ND
2019/09/09,14:30,0.59,ND,ND
2019/09/09,14:40,0.62,ND,ND
2019/09/09,14:50,0.62,ND,ND
2019/09/09,15:00,0.62,ND,ND
2019/09/09,15:10,0.64,ND,ND
2019/09/09,15:20,0.66,ND,ND
2019/09/09,15:30,0.73,ND,ND
2019/09/09,15:40,0.72,ND,ND
2019/09/09,15:50,0.79,ND,ND
2019/09/09,16:00,0.78,ND,10
2019/09/09,16:10,0.82,ND,ND
2019/09/09,16:20,0.84,ND,ND
2019/09/09,16:30,0.87,ND,ND
2019/09/09,16:40,0.89,ND,ND
2019/09/09,16:50,0.92,ND,ND
2019/09/09,17:00,0.93,ND,ND
2019/09/09,17:10,0.94,ND,11
2019/09/09,17:20,0.95,ND,8.8
2019/09/09,17:30,0.93,ND,ND
2019/09/09,17:40,0.94,ND,ND
2019/09/09,17:50,0.95,ND,ND
2019/09/09,18:00,0.98,ND,ND
2019/09/09,18:10,0.99,ND,ND
2019/09/09,18:20,1.0,ND,ND
2019/09/09,18:30,1.1,ND,ND
2019/09/09,18:40,1.1,ND,ND
2019/09/09,18:50,1.1,ND,ND
2019/09/09,19:00,1.2,ND,ND
2019/09/09,19:10,1.2,ND,ND
2019/09/09,19:20,1.3,ND,ND
2019/09/09,19:30,1.3,ND,ND
2019/09/09,19:40,1.3,ND,ND
2019/09/09,19:50,1.3,ND,ND
2019/09/09,20:00,1.4,ND,ND
2019/09/09,20:10,1.4,ND,ND
2019/09/09,20:20,1.4,ND,ND
2019/09/09,20:30,1.4,ND,ND
2019/09/09,20:40,1.4,ND,ND
2019/09/09,20:50,1.4,ND,ND
2019/09/09,21:00,1.4,ND,ND
2019/09/09,21:10,1.3,0.032,ND
2019/09/09,21:20,1.3,0.032,ND
2019/09/09,21:30,1.5,ND,ND
2019/09/09,21:40,1.5,ND,ND
2019/09/09,21:50,1.4,0.041,ND
2019/09/09,22:00,1.4,0.037,ND
2019/09/09,22:10,1.4,0.039,ND
2019/09/09,22:20,1.4,0.034,ND
2019/09/09,22:30,1.4,ND,ND
2019/09/09,22:40,1.4,ND,ND
2019/09/09,22:50,1.3,ND,ND
2019/09/09,23:00,1.2,ND,ND
2019/09/09,23:10,1.2,ND,ND
2019/09/09,23:20,1.1,ND,ND
2019/09/09,23:30,1.0,ND,ND
2019/09/09,23:40,0.97,ND,ND
2019/09/09,23:50,0.92,ND,ND
